This demonstration page uses our WeatherBlox Daily Observations layout. Learn more.

41.55636, -103.73856

Hourly Observations for January 28, 2018

Temp ( °F °C ) Dew Point ( °F °C ) Humidity (%) Winds ( mph kmh ) Pressure ( in mb ) Visibility ( mi km ) Precip ( " mm )
12:53 am 00:53 Mostly Clear 20 -6.7 16 -8.9 85 85 NNE 3 6 30.27 1025 10 16.09344 0 0
1:53 am 01:53 Clear 19 -7.2 15 -9.4 84 84 NNE 7 11 30.27 1025 10 16.09344 0 0
2:53 am 02:53 Clear 19 -7.2 14 -10 81 81 Calm 30.27 1025 10 16.09344 0 0
3:53 am 03:53 Clear 18 -7.8 14 -10 84 84 N 6 9 30.27 1025 10 16.09344 0 0
4:53 am 04:53 Mostly Clear 26 -3.3 19 -7.2 75 75 NW 9 15 30.27 1025 10 16.09344 0 0
5:53 am 05:53 Cloudy 27 -2.8 21 -6.1 78 78 W 8 13 30.3 1026 10 16.09344 0 0
6:53 am 06:53 Cloudy 33 0.6 24 -4.4 70 70 WNW 8 13 30.3 1026 10 16.09344 0 0
7:53 am 07:53 Cloudy 36 2.2 26 -3.3 67 67 WNW 10 17 30.33 1027 10 16.09344 0 0
8:53 am 08:53 Cloudy 36 2.2 27 -2.8 70 70 NW 12 19 30.36 1028 10 16.09344 0 0
9:53 am 09:53 Cloudy 37 2.8 28 -2.2 70 70 NW 8 13 30.39 1029 10 16.09344 0 0
10:53 am 10:53 Cloudy 39 3.9 29 -1.7 67 67 NW 12 19 30.42 1030 10 16.09344 0 0
11:53 am 11:53 Cloudy 38 3.3 28 -2.2 68 68 NW 10 17 30.45 1031 10 16.09344 0 0
12:53 pm 12:53 Mostly Cloudy 39 3.9 27 -2.8 62 62 NW 22 35 30.42 1030 10 16.09344 0 0
1:53 pm 13:53 Mostly Cloudy 41 5 28 -2.2 60 60 NW 17 28 30.45 1031 10 16.09344 0 0
2:53 pm 14:53 Cloudy 39 3.9 26 -3.3 60 60 NW 21 33 30.48 1032 10 16.09344 0 0
3:53 pm 15:53 Partly Cloudy 38 3.3 27 -2.8 65 65 NNW 17 28 30.5 1033 10 16.09344 0 0
4:53 pm 16:53 Mostly Cloudy 36 2.2 28 -2.2 73 73 N 15 24 30.5 1033 10 16.09344 0 0
5:53 pm 17:53 Cloudy 34 1.1 27 -2.8 76 76 NNW 13 20 30.5 1033 10 16.09344 0 0
6:53 pm 18:53 Cloudy 32 0 27 -2.8 82 82 NW 6 9 30.5 1033 10 16.09344 0 0
7:53 pm 19:53 Cloudy 31 -0.6 26 -3.3 82 82 N 6 9 30.53 1034 10 16.09344 0 0
8:53 pm 20:53 Mostly Cloudy 29 -1.7 25 -3.9 85 85 N 5 7 30.53 1034 10 16.09344 0 0
9:53 pm 21:53 Cloudy 31 -0.6 27 -2.8 85 85 S 3 6 30.53 1034 10 16.09344 0 0
10:53 pm 22:53 Cloudy 30 -1.1 26 -3.3 85 85 ESE 7 11 30.53 1034 10 16.09344 0 0
11:53 pm 23:53 Cloudy 29 -1.7 26 -3.3 89 89 ESE 6 9 30.5 1033 10 16.09344 0 0

Powered by AerisWeather